Regional Weather Roundup
Issued by NWS

Home | Current Version | Previous Version | Graphics & Text | Print | Product List | Glossary On
Versions: 1 2 3 4 5 6 7 8 9 10 11 12 13 14 15 16 17 18 19 20 21 22 23 24 25 26 27 28 29 30 31 32 33 34 35 36 37 38 39 40 41 42 43 44 45 46 47 48 49 50
000
ASUS43 KOAX 281810
RWRNE

WEATHER ROUNDUP FOR NEBRASKA
NATIONAL WEATHER SERVICE OMAHA NE
1200 PM CST SAT FEB 28 2015

NOTES: SATELLITE DATA IS BEING USED TO AUGMENT CLOUD COVER ABOVE
       12000 FEET.
       "FAIR" INDICATES FEW OR NO CLOUDS BELOW 12,000 FEET WITH NO
       SIGNIFICANT WEATHER AND/OR OBSTRUCTIONS TO VISIBILITY.

  * THESE STATIONS DO NOT REPORT WEATHER SUCH AS RAIN...SNOW OR FOG.

NEZ001>004-019>022-054>056-281900-
NEBRASKA PANHANDLE

CITY           SKY/WX    TMP DP  RH WIND       PRES   REMARKS
SCOTTSBLUFF    SUNNY     25  11  55 CALM      30.07F
6HR MIN TEMP:   6; 6HR MAX TEMP:  25;

ALLIANCE       SUNNY     24   9  52 NE7       30.07S WCI  16
6HR MIN TEMP:   2; 6HR MAX TEMP:  24;

CHADRON        PTSUNNY   23  12  62 E5        30.12S WCI  17
6HR MIN TEMP:   4; 6HR MAX TEMP:  23;

KIMBALL        SUNNY     20  13  71 NE7       29.98F WCI  12
SIDNEY         SUNNY     19  10  68 CALM      30.05F
6HR MIN TEMP:  -2; 6HR MAX TEMP:  19;

$$

NEZ057>060-069>072-079>082-281900-
SOUTHWEST NEBRASKA

CITY           SKY/WX    TMP DP  RH WIND       PRES   REMARKS
NORTH PLATTE   CLOUDY    24  10  55 S13       30.19F WCI  12
6HR MIN TEMP:  13; 6HR MAX TEMP:  24; 6HR PCP: TRACE;

IMPERIAL         N/A     21   8  57 S7        30.14F WCI  12
6HR MIN TEMP:  13; 6HR MAX TEMP:  21; 6HR PCP: TRACE;

LEXINGTON      MOSUNNY   23  11  60 S10       30.25F WCI  12
MCCOOK         CLOUDY    24  10  55 S8G18     30.22F WCI  15
6HR MIN TEMP:  15; 6HR MAX TEMP:  24; 6HR PCP: TRACE;

OGALLALA       CLOUDY    23  12  61 SW7       30.14S WCI  15
$$

NEZ005>010-023>029-035>040-094-281900-
NORTH CENTRAL NEBRASKA

CITY           SKY/WX    TMP DP  RH WIND       PRES   REMARKS
VALENTINE      MOSUNNY   27   9  46 SW15      30.16S WCI  15
6HR MIN TEMP:  11; 6HR MAX TEMP:  27;

AINSWORTH      PTSUNNY   23  10  56 SW17G23   30.18S WCI   9
BROKEN BOW     MOSUNNY   24  10  55 S18G29    30.22F WCI  10
6HR MIN TEMP:  13; 6HR MAX TEMP:  25;

O`NEILL        CLOUDY    25  11  55 S16G23    30.25F WCI  12
ORD            CLOUDY    23   8  52 S13G24    30.27F WCI  11
6HR MIN TEMP:   8; 6HR MAX TEMP:  23;

THEDFORD       MOSUNNY   24  12  60 SW13G25   30.18F WCI  12
$$

NEZ041-046>049-061>064-073>077-083>087-281900-
SOUTH CENTRAL NEBRASKA

CITY           SKY/WX    TMP DP  RH WIND       PRES   REMARKS
GRAND ISLAND   MOSUNNY   20   9  62 SW15      30.33F WCI   6
6HR MIN TEMP:   6; 6HR MAX TEMP:  22;

AURORA         CLOUDY    19  12  73 S10       30.34F HAZE    WCI   8
HASTINGS       LGT SNOW  18  12  77 S10       30.32F WCI   6
6HR MIN TEMP:   5; 6HR MAX TEMP:  18; 6HR PCP: TRACE;

HEBRON         LGT SNOW  19  13  78 S8        30.39F WCI   9
HOLDREGE       LGT SNOW  19  12  76 S13       30.27F WCI   6
KEARNEY *      PTSUNNY   21  10  63 S13       30.29F WCI   9
YORK           MOSUNNY   18  14  86 S10       30.37F FOG     WCI   6
$$

NEZ011>018-030>034-042>045-281900-
NORTHEAST NEBRASKA

CITY           SKY/WX    TMP DP  RH WIND       PRES   REMARKS
NORFOLK        CLOUDY    22  10  60 S17       30.35F WCI   8
6HR MIN TEMP:   6; 6HR MAX TEMP:  23;

ALBION         CLOUDY    23   9  55 SW14G21   30.32F WCI  10
BLAIR          PTSUNNY   21  11  64 S15       30.42F WCI   8
COLUMBUS *     CLOUDY    23   5  46 S14G20    30.39F WCI  11
FREMONT        CLOUDY    23  11  59 S15       30.43F WCI  10
WAYNE          PTSUNNY   23  11  59 SW14G23   30.37F WCI  11
$$

NEZ050>053-065>068-078-088>093-281900-
SOUTHEAST NEBRASKA

CITY           SKY/WX    TMP DP  RH WIND       PRES   REMARKS
LINCOLN        LGT SNOW  20  15  81 S9        30.44F VSB 1   WCI   9
6HR MIN TEMP:   6; 6HR MAX TEMP:  20; 6HR PCP:  0.01;

OMAHA EPPLEY   PTSUNNY   22   9  57 S16       30.48S WCI   8
6HR MIN TEMP:   6; 6HR MAX TEMP:  22;

BEATRICE       LGT SNOW  19  14  79 S7        30.42F WCI  10
FALLS CITY     LGT SNOW  21  15  78 S8        30.47F VSB 1   WCI  11
6HR MIN TEMP:   9; 6HR MAX TEMP:  21; 6HR PCP: TRACE;

NEBRASKA CITY  LGT SNOW  20  13  72 S10       30.45F WCI   9
PLATTSMOUTH    CLOUDY    21  11  65 S12       30.45F HAZE    WCI   9
$$

NEZ044-045-051>053-067-281900-
OMAHA AREA

CITY           SKY/WX    TMP DP  RH WIND       PRES   REMARKS
OMAHA EPPLEY   PTSUNNY   22   9  57 S16       30.48S WCI   8
6HR MIN TEMP:   6; 6HR MAX TEMP:  22;

BLAIR          PTSUNNY   21  11  64 S15       30.42F WCI   8
FREMONT        CLOUDY    23  11  59 S15       30.43F WCI  10
MILLARD        PTSUNNY   22  10  59 S9        30.46F WCI  12
OFFUTT AFB     LGT SNOW  21  10  61 S10       30.46F WCI  10
PLATTSMOUTH    CLOUDY    21  11  65 S12       30.45F HAZE    WCI   9
WAHOO          CLOUDY    22   9  57 SW14      30.43F WCI  10
$$


USA.gov is the U.S. government's official web portal to all federal, state and local government web resources and services.